Regional Weather Roundup
Issued by NWS

Home | Current Version | Previous Version | Graphics & Text | Print | Product List | Glossary On
Versions: 1 2 3 4 5 6 7 8 9 10 11 12 13 14 15 16 17 18 19 20 21 22 23 24 25 26 27 28 29 30 31 32 33 34 35 36 37 38 39 40 41 42 43 44 45 46 47 48 49 50
000
ASUS45 KBOU 290307
RWRCO

WEATHER ROUNDUP FOR COLORADO
NATIONAL WEATHER SERVICE DENVER/BOULDER CO
900 PM MDT MON JUL 28 2014

NOTE: "FAIR" INDICATES FEW OR NO CLOUDS BELOW 12000 FEET WITH NO
SIGNIFICANT WEATHER AND/OR OBSTRUCTIONS TO VISIBILITY.

COZ001>005-013-030-031-290400-
...NORTHWEST COLORADO...

CITY           SKY/WX    TMP DP  RH WIND       PRES   REMARKS
CRAIG          CLOUDY    62  52  69 W5        30.31R
HAYDEN         CLOUDY    70  46  43 NE8       30.34R
MEEKER         CLOUDY    67  54  63 SW13      30.35R
MOUNT WERNER   NOT AVBL
STEAMBOAT SPGS CLOUDY    70  48  46 SE5       30.36R
WALDEN         MOCLDY    59  46  63 E5        30.46R
$$

COZ006>008-011-290400-
...WEST CENTRAL VALLEYS...

CITY           SKY/WX    TMP DP  RH WIND       PRES   REMARKS
GRAND JUNCTION CLOUDY    73  55  53 N15G25    30.23R
MONTROSE       LGT RAIN  77  54  44 E17       30.29R
EAGLE          CLOUDY    66  54  63 CALM      30.41R
RIFLE          LGT RAIN  65  58  78 E7        30.31F
DELTA          CLOUDY    80  51  36 E7        30.23S
NUCLA          NOT AVBL
$$

COZ017>023-064>068-290400-
...SOUTHWEST COLORADO...

CITY           SKY/WX    TMP DP  RH WIND       PRES   REMARKS
DURANGO        LGT RAIN  61  58  90 N14       30.42F
CORTEZ         LGT RAIN  66  58  75 NE7       30.35R
PAGOSA SPRINGS TSTM      61  57  88 CALM      30.51R
TELLURIDE      CLOUDY    54  54 100 CALM      30.60S
WOLF CREEK PAS NOT AVBL
$$

COZ009-010-012-014-032>034-037-058>063-290400-
...CENTRAL COLORADO...

CITY           SKY/WX    TMP DP  RH WIND       PRES   REMARKS
ASPEN          LGT RAIN  58  54  86 SE9       30.48F
BUENA VISTA    CLOUDY    58  53  84 CALM      30.51S
COPPER MTN     CLOUDY    52  39  62 S23       30.76R
BERTHOUD PASS  FAIR      45  32  61 SE8       30.81R
COTTONWOOD PAS LGT RAIN  54  48  82 W9        30.63S
GUNNISON       CLOUDY    61  52  72 NE8       30.52R
KREMMLING      CLOUDY    66  45  45 SW6       30.43R
LEADVILLE      CLOUDY    49  48  97 E3        30.62F
MONARCH PASS   CLOUDY    43  41  93 E9        30.87R
SALIDA         CLOUDY    61  57  87 CALM      30.57S
SUNLIGHT       CLOUDY    50  46  87 SE5       30.67F
WILKERSON PASS CLOUDY    45  41  87 W8        30.74R
$$

COZ069>075-290400-
...SAN LUIS VALLEY/SANGRE DE CRISTO MOUNTAINS...

CITY           SKY/WX    TMP DP  RH WIND       PRES   REMARKS
ALAMOSA        LGT RAIN  58  55  90 N8        30.48R
LA VETA PASS   LGT RAIN  46  45  93 CALM      30.67S
SAGUACHE       CLOUDY    59  52  77 CALM      30.55R
$$

COZ035-036-038>040-290400-
...NORTHERN COLORADO FRONT RANGE...

CITY           SKY/WX    TMP DP  RH WIND       PRES   REMARKS
DENVER INTL AP MOCLDY    71  55  56 S9        30.28R
DMNS CITY PARK   N/A     71  53  52 S7        30.27R
AURORA         MOCLDY    68  53  58 S9        30.31R
FRONT RANGE AP NOT AVBL
ERIE MUNI ARPT MOCLDY    72  59  62 SE7       30.25R
BOULDER MUN AP MOCLDY    72  59  64 CALM      30.26R
CENTENNIAL     MOCLDY    67  51  56 S13       30.32R
BROOMFIELD     MOCLDY    73  63  68 VRB6      30.29R
FORT COLLINS   MOCLDY    72  57  60 E12       30.26R
LONGMONT       MOCLDY    74  61  64 E7        30.26R
$$

COZ041-046-047-076>085-087-088-290400-
...PIKES PEAK/PALMER DIVIDE AND SOUTHERN FOOTHILLS...

CITY           SKY/WX    TMP DP  RH WIND       PRES   REMARKS
COLO. SPRINGS  CLOUDY    67  61  81 SE7       30.37R
A. F. ACADEMY  CLOUDY    64  59  85 S3        30.39R
ELLICOTT       CLOUDY    67  61  81 SW6       30.36R
FALCON         CLOUDY    62  59  88 SW5       30.42R
FORT CARSON    CLOUDY    67  61  82 S8        30.34R
LIMON          CLOUDY    68  54  60 SE7       30.32R
MONUMENT HILL  MOCLDY    59  55  88 S10       30.41R
TRINIDAD       LGT RAIN  65  58  78 W12       30.37R
$$

COZ042>045-048>051-090-091-290400-
...NORTHEAST COLORADO...

CITY           SKY/WX    TMP DP  RH WIND       PRES   REMARKS
GREELEY ARPT   NOT AVBL
AKRON          CLOUDY    76  52  43 SE7       30.28R
BURLINGTON     CLOUDY    69  58  67 S7        30.26S
WRAY             N/A     77  50  37 SE8       30.23R
STERLING       CLOUDY    72  63  73 S3        30.23R
HOLYOKE        MOCLDY    73  57  56 S7        30.23R
FORT MORGAN    CLOUDY    75  55  48 CALM      30.27R
$$

COZ086-089-092>099-290400-
...SOUTHEAST COLORADO...

CITY           SKY/WX    TMP DP  RH WIND       PRES   REMARKS
PUEBLO         CLOUDY    71  58  63 W8        30.27S
LA JUNTA       CLOUDY    73  64  73 SE7       30.23R
LAMAR          CLOUDY    72  60  66 S7        30.21S
SPRINGFIELD      N/A     66  62  87 S10       30.28S
$$



USA.gov is the U.S. government's official web portal to all federal, state and local government web resources and services.